RH
79 80 78 78 78 78 78 80 80 83 82 83 84 85 88 90 85 34 11 17 21 51 46 9 10 9 9 12 14 20 42 26 22 27 26 20 23 22 21 24 24 23 25 32 33
78 79 79 78 78 78 80 80 80 82 83 84 84 85 88 90 31 11 31 58 54 52 8 8 8 8 11 15 18 25 88 31 19 18 20 18 21 22 27 23 28 30 29 31 32
78 78 79 77 78 79 80 80 81 82 83 84 84 85 88 72 20 6 61 60 64 44 10 6 8 9 13 15 18 22 40 18 18 17 17 18 20 19 21 23 25 31 37 34 33
77 76 78 78 79 79 80 80 81 82 83 84 84 84 86 33 9 10 58 56 70 16 8 6 9 10 13 18 16 22 18 18 18 17 18 19 18 21 20 22 20 27 33 34 33
79 77 78 78 78 80 80 82 83 84 83 84 83 84 42 16 8 11 46 46 21 9 7 7 10 10 14 12 14 18 18 16 16 16 16 16 18 19 20 22 20 26 32 34 33
78 77 79 78 79 79 80 82 83 84 84 83 83 87 32 12 5 6 7 8 7 7 7 6 8 9 11 12 14 13 15 14 14 14 14 16 17 16 20 22 25 28 30 30 31
79 78 79 78 78 80 81 84 83 84 84 84 84 45 18 8 5 5 6 7 5 5 5 7 6 9 10 12 10 12 17 14 13 15 17 15 18 17 23 22 28 27 28 30 31
79 80 80 80 80 81 86 88 86 85 84 82 78 30 14 5 5 6 6 6 6 5 6 5 6 9 9 9 11 14 16 18 19 15 16 15 48 16 21 22 26 27 30 30 32
81 81 82 83 84 87 90 89 87 83 80 73 43 22 10 16 5 4 4 5 6 6 6 6 6 11 9 11 14 13 17 18 23 13 14 16 22 14 13 15 23 30 29 30 34
82 84 85 84 86 88 87 90 72 76 60 29 19 19 10 5 4 6 5 5 5 6 6 7 9 12 10 10 17 18 13 20 17 14 13 15 16 13 11 14 16 26 28 33 36
84 84 84 81 85 87 65 28 31 32 24 13 11 7 6 6 6 6 5 6 5 6 7 8 12 14 11 11 10 13 14 14 12 12 14 13 12 12 10 12 16 17 29 32 35
84 84 81 84 85 87 59 19 22 23 18 12 10 8 7 7 7 6 5 6 6 7 6 5 7 7 8 9 10 12 14 13 11 12 13 15 14 12 12 12 12 15 20 29 31
83 83 84 86 86 64 22 20 19 19 18 10 9 8 8 7 6 5 6 5 6 6 5 5 4 4 4 8 11 12 12 13 13 13 11 14 16 15 11 11 11 12 14 20 29
81 83 87 88 67 21 21 22 19 20 19 11 9 8 10 8 7 4 5 4 4 5 5 4 4 4 4 6 9 12 10 10 13 13 16 11 19 31 12 11 10 11 14 16 24
83 84 89 89 44 21 24 19 19 20 18 7 8 8 8 8 6 6 5 4 5 5 4 6 5 4 5 5 6 10 9 11 11 13 12 11 12 21 12 12 12 13 14 16 19
81 84 85 53 41 22 20 21 21 19 13 10 9 10 9 8 6 5 6 6 5 5 5 5 3 4 4 4 5 7 9 11 12 11 16 12 12 15 17 13 12 12 14 15 14
83 88 82 40 24 19 21 22 21 14 9 10 9 9 8 8 7 7 7 8 8 9 8 6 5 4 4 4 4 6 8 14 17 15 16 10 13 14 12 10 10 11 12 13 14
88 94 72 33 23 24 24 22 23 9 8 11 11 9 11 9 7 6 7 6 6 6 6 7 6 4 4 4 5 6 6 10 24 17 13 12 16 11 8 9 8 9 9 11 11
92 39 28 25 24 25 25 20 12 10 13 12 10 10 9 8 8 6 7 6 6 6 8 6 6 3 4 4 4 5 6 4 6 8 12 20 14 10 9 9 9 8 9 10 10
42 24 21 23 22 25 24 27 14 12 13 12 11 11 11 10 9 7 7 6 6 5 5 7 8 5 4 3 3 4 3 4 4 16 19 12 14 13 13 11 10 9 9 10 10
39 28 22 21 22 24 22 16 15 9 10 12 11 13 11 12 11 7 7 6 5 5 6 5 5 7 5 5 5 4 4 5 4 6 13 16 12 8 13 11 10 9 8 9 12
27 26 22 20 26 19 17 15 47 14 12 11 13 14 14 13 14 11 10 7 5 5 7 6 5 8 6 4 4 4 4 5 8 13 10 10 14 8 9 7 7 8 8 14 16
30 23 21 21 28 20 18 18 17 16 16 14 12 12 11 12 19 14 12 9 11 10 7 6 8 9 8 5 4 5 4 4 4 6 14 13 11 7 8 8 8 9 8 12 18
32 26 25 25 21 22 22 23 20 17 18 17 16 13 16 16 15 19 14 12 15 14 52 17 6 8 8 9 5 7 6 4 4 7 10 10 10 9 9 8 7 7 8 9 16
26 29 26 25 21 21 21 23 23 22 18 20 21 18 18 18 16 17 14 14 15 32 17 7 9 8 6 5 5 5 6 5 6 6 9 9 9 8 8 9 9 9 10 12 12
27 28 23 21 20 24 29 23 23 21 20 23 24 18 15 19 18 27 26 31 49 77 14 8 12 10 10 6 5 6 5 5 5 5 7 8 8 6 11 11 12 11 15 15 14
20 18 21 26 16 18 18 19 20 21 21 20 24 21 21 18 19 20 25 72 33 22 19 19 15 15 14 8 8 9 7 6 6 5 6 8 8 8 8 10 17 22 23 24 22
Wind_Speed
11 11 12 14 14 13 15 16 16 16 17 17 17 17 16 16 21 9 10 4 3 3 5 15 13 10 11 14 9 10 7 4 8 4 12 8 13 5 4 9 3 3 5 23 23
12 12 12 13 14 15 14 15 16 16 18 18 18 18 16 15 14 14 5 6 3 4 12 12 13 8 13 8 6 10 6 2 8 6 8 8 4 7 6 8 10 5 17 21 23
13 12 13 14 14 15 16 17 16 17 17 18 18 18 16 17 11 7 6 3 5 10 16 12 11 8 17 7 8 6 5 5 5 9 7 11 4 2 0 8 11 11 16 19 21
14 14 14 14 16 16 17 18 17 16 17 18 17 17 16 11 6 9 3 2 8 14 15 13 12 12 11 7 6 8 2 2 3 4 5 2 8 4 6 12 7 16 17 19 18
14 15 15 15 16 17 17 18 19 19 18 17 17 15 11 10 8 11 6 6 12 16 17 15 13 12 10 0 6 11 6 4 3 2 6 4 2 5 5 6 10 17 18 19 17
14 15 15 16 17 17 17 18 19 20 20 18 16 14 10 15 5 5 3 6 10 16 17 17 13 8 10 2 9 5 5 6 5 6 6 6 6 6 13 6 12 16 17 17 17
15 16 16 17 18 18 19 19 21 21 18 17 12 9 11 11 3 6 7 9 8 15 15 14 9 13 9 7 4 4 10 12 12 7 0 6 9 8 16 9 12 13 15 16 16
16 17 17 17 18 19 19 20 21 19 15 12 8 11 9 4 5 8 10 9 9 10 11 3 9 14 12 3 11 12 16 13 11 6 8 10 5 8 13 10 11 13 14 15 17
16 17 18 17 17 19 20 22 20 13 9 7 9 10 12 4 11 13 14 13 13 11 8 6 12 16 17 11 15 12 14 3 11 11 6 5 11 2 6 7 13 10 14 15 15
16 16 18 18 20 20 23 22 6 6 8 9 8 9 8 11 11 7 12 14 13 13 12 13 11 16 14 16 14 8 14 17 7 4 8 11 13 10 8 8 6 17 13 14 16
15 16 17 21 21 20 18 7 8 9 13 11 3 6 3 3 5 13 12 14 15 15 17 19 17 19 21 19 18 6 12 5 6 2 4 11 12 12 11 10 9 9 17 15 17
14 15 18 20 22 21 11 8 8 7 11 18 12 10 4 4 9 12 14 17 17 19 20 19 20 20 20 20 16 9 11 11 11 3 9 13 12 12 12 9 5 10 13 15 17
15 15 17 21 23 11 8 6 5 9 9 12 11 13 12 12 11 17 16 21 21 21 21 21 18 18 19 20 20 10 17 13 11 1 12 16 15 14 13 7 5 9 8 18 17
16 16 15 22 10 4 4 3 7 5 8 15 11 9 9 10 14 13 17 19 16 21 23 21 19 9 15 19 14 19 15 17 4 9 12 5 9 11 8 2 13 8 10 11 17
15 15 14 9 13 6 8 5 7 6 8 10 11 7 6 14 8 18 13 17 20 17 18 20 19 16 17 15 19 18 16 8 9 13 16 17 10 14 9 6 7 2 8 11 16
17 16 16 7 8 8 5 6 7 9 4 9 9 12 13 17 11 10 15 15 13 18 18 20 16 15 16 17 20 18 17 9 8 14 15 16 11 4 12 2 2 9 10 13 14
17 15 9 10 4 2 5 7 9 11 3 9 11 10 15 13 18 13 17 19 16 17 18 17 23 11 16 21 19 19 15 13 13 14 14 14 7 7 8 8 4 3 11 12 13
18 16 10 9 4 6 7 10 11 6 1 4 3 6 11 12 14 16 16 19 21 18 14 17 19 23 17 23 21 18 20 14 15 14 16 10 8 7 7 7 4 6 8 14 14
23 8 8 6 7 5 9 11 6 3 7 5 6 12 13 9 7 16 19 18 19 21 20 15 18 14 22 17 21 20 20 20 24 21 15 16 8 8 2 8 6 7 4 13 11
7 7 4 5 7 8 9 13 5 3 6 10 13 3 8 15 12 13 16 15 18 18 15 19 12 12 15 16 21 22 15 19 15 23 20 10 13 3 12 10 6 7 6 11 8
8 7 7 7 6 8 11 1 2 5 6 8 10 6 11 5 9 14 10 11 7 17 16 17 15 12 15 19 21 15 20 15 18 19 16 11 11 13 11 7 7 5 4 8 8
8 5 7 5 9 8 9 1 4 10 8 10 8 13 9 7 10 13 11 8 7 12 16 17 13 15 15 15 16 24 21 19 14 19 14 16 5 12 8 6 13 3 3 14 3
6 4 6 6 9 7 5 8 6 10 9 8 11 11 8 12 8 13 8 1 3 12 12 14 13 15 16 20 19 21 24 22 25 19 20 10 11 11 14 6 5 9 9 10 5
7 6 7 8 12 11 9 8 8 9 11 10 10 11 11 14 13 8 9 10 9 13 8 11 15 18 16 17 15 22 21 21 23 18 17 16 18 11 6 8 5 5 9 5 8
6 2 7 4 9 9 8 8 9 7 10 7 11 15 16 15 15 16 15 14 13 8 10 16 18 18 18 23 22 18 20 24 25 25 24 19 15 12 9 6 7 6 7 3 5
7 5 3 9 10 8 8 10 12 11 11 12 12 14 15 17 17 10 16 7 12 25 11 17 15 16 19 22 20 22 17 25 27 25 25 24 18 8 10 6 3 2 2 3 5
5 5 6 7 10 9 8 9 9 7 10 13 15 10 7 9 13 13 6 4 31 9 10 6 10 13 17 19 20 23 22 18 18 25 21 21 16 14 10 3 5 1 3 2 2
Wind_Direction
351 348 345 341 340 339 336 335 333 335 334 332 332 329 324 319 300 226 252 30 57 296 256 237 219 234 241 256 226 267 324 140 91 113 123 173 114 81 79 125 23 78 45 133 152
350 348 344 340 337 334 332 329 330 331 332 331 329 326 323 323 288 259 104 84 356 270 229 232 221 202 237 224 204 249 138 2 33 46 118 118 62 133 178 115 109 93 95 143 156
347 347 342 337 335 332 331 329 327 328 328 326 324 322 317 312 267 209 67 47 247 228 246 267 274 255 263 219 202 221 330 72 117 17 342 87 132 51 179 117 103 128 138 156 164
345 342 340 336 334 333 330 325 324 323 321 320 319 317 313 266 236 85 85 259 219 225 242 248 246 243 259 221 171 240 200 271 45 116 277 201 99 192 344 71 76 122 149 165 175
340 338 337 335 333 331 327 325 321 317 316 314 312 315 292 225 255 126 175 169 184 208 230 237 240 243 256 233 262 230 155 232 191 231 231 310 264 22 158 86 113 132 153 168 178
336 335 333 333 331 327 324 321 316 312 312 310 304 306 247 248 79 142 200 197 208 209 227 241 253 297 310 277 270 10 288 248 186 211 236 281 260 181 97 135 125 151 162 171 178
334 333 332 331 330 326 322 315 311 308 304 297 289 271 265 245 358 209 229 228 189 215 237 232 273 269 251 218 260 272 256 219 193 167 315 278 248 208 116 147 151 169 169 172 180
332 330 330 330 326 322 317 310 305 300 292 276 242 245 260 78 273 228 231 222 212 227 265 287 263 272 283 287 255 243 223 253 8 184 139 272 267 147 150 163 167 182 174 179 181
330 328 327 326 326 323 316 308 300 285 265 220 222 234 250 125 216 214 216 225 199 214 222 280 249 249 237 237 236 205 244 190 186 228 270 218 306 256 172 183 170 188 176 185 184
327 325 325 329 326 323 316 300 318 240 222 216 267 254 241 221 171 205 210 234 217 213 217 224 233 240 234 232 233 242 227 184 232 154 212 268 260 259 243 171 215 169 192 189 190
322 324 327 326 322 319 316 203 203 192 213 247 199 253 113 173 196 214 198 207 222 222 220 211 231 232 232 228 271 237 288 322 184 72 278 270 280 275 268 204 185 256 170 188 200
323 322 326 323 318 313 284 264 41 347 291 207 241 261 247 285 216 216 183 202 207 217 221 227 224 235 243 254 239 252 259 247 252 204 253 275 283 285 266 242 241 202 189 188 192
323 323 324 321 316 285 273 19 336 326 255 178 215 226 211 207 235 191 197 206 206 221 220 232 223 215 248 235 244 233 241 240 258 183 270 253 253 236 243 176 210 238 254 177 190
324 325 327 323 293 353 222 100 304 303 266 151 195 188 186 228 226 239 192 212 226 228 227 237 248 233 234 242 232 242 216 264 334 267 263 218 284 328 217 257 233 194 194 187 175
324 323 320 323 318 241 43 295 309 237 255 149 132 99 166 209 91 192 194 217 229 220 236 229 230 227 239 238 232 240 249 218 233 256 274 254 248 178 184 201 71 151 180 175 179
322 318 319 220 217 284 296 296 240 228 228 145 145 191 190 212 231 142 196 236 240 247 232 250 230 239 235 238 233 242 244 236 266 245 250 251 267 233 109 90 93 129 159 172 183
312 303 274 307 13 8 283 233 228 252 136 146 189 184 213 180 217 184 200 202 219 222 224 216 246 214 254 241 239 235 238 238 225 226 243 235 242 107 289 134 59 110 154 178 183
308 311 189 259 296 268 241 232 253 28 278 55 243 222 238 214 205 206 202 214 220 229 238 214 213 220 213 236 234 213 239 234 228 237 238 156 211 245 251 93 199 193 190 178 190
310 200 222 153 212 245 251 233 266 77 18 281 251 242 199 229 275 204 221 218 222 221 242 263 224 223 210 216 238 236 219 247 259 258 264 177 261 215 215 242 149 226 199 189 203
282 226 112 139 191 234 249 270 1 323 288 256 266 216 259 186 198 222 210 222 240 228 225 263 273 246 184 232 228 243 241 218 242 256 261 256 225 268 169 192 139 210 215 177 178
243 229 116 154 219 230 253 286 344 223 260 261 265 279 259 303 239 232 240 215 247 240 207 242 259 243 218 206 229 211 240 245 248 234 258 247 247 179 178 212 231 180 193 132 106
278 244 137 196 228 229 266 111 19 272 204 252 272 288 295 298 248 246 248 254 193 247 204 230 251 233 242 229 231 249 222 232 228 234 238 261 307 347 120 202 215 230 121 96 96
258 83 159 233 263 220 173 257 235 267 235 239 235 236 249 265 252 263 234 47 352 265 253 214 226 256 249 238 213 218 233 223 249 237 234 249 253 204 140 164 237 236 236 135 152
275 212 150 212 271 282 303 266 261 183 275 277 267 250 254 241 249 276 218 207 198 254 1 276 254 239 250 240 229 214 242 244 236 240 236 229 245 142 167 189 209 255 248 161 159
239 38 356 239 215 234 261 296 292 271 209 255 233 245 250 245 249 218 241 267 193 163 235 231 246 249 252 269 268 254 205 225 244 244 248 241 237 255 231 236 87 17 329 320 225
312 336 5 266 279 265 251 261 261 271 248 261 215 277 216 255 258 330 326 356 359 346 215 214 242 267 257 253 257 264 261 212 224 232 247 261 256 253 116 98 193 90 332 243 238
16 259 272 289 270 242 268 285 265 295 282 271 281 273 251 273 313 315 317 279 261 201 302 315 265 241 254 248 248 246 250 248 243 226 231 242 251 272 284 138 63 103 194 126 253